#timestamp,LO_Frequency,Hit,StdDev 
1602660435.1,286046999.8,P
1602660455.9,286047002.2,N
1602660475.7,286047004.0,N
1602660495.5,286047003.3,N
1602660515.4,286047003.6,N
1602660535.2,286047001.5,N
1602660555.1,286047002.1,N
1602660556.0,286047002.1,N
1602660575.8,286047002.2,N
1602660595.6,286047001.2,N
1602660615.5,286046998.9,N
1602660635.3,286047000.8,N
1602660655.1,286046998.6,N
1602660675.9,286046998.7,N
1602660695.7,286046998.3,N
1602660715.6,286046999.1,N
1602660735.4,286047000.8,N
1602660755.2,286047000.7,N
1602660775.1,286046999.7,N
1602660776.0,286046999.7,N
1602660795.8,286047002.8,N
1602660815.6,286047004.4,N
1602660835.5,286047003.6,N
1602660855.3,286047005.7,N
1602660875.2,286047005.6,N
1602660895.9,286047005.8,N
1602660915.7,286047007.0,N
1602660935.6,286047007.7,N
1602660955.4,286047008.5,N
1602660975.2,286047008.9,N
1602660995.1,286047010.6,Y
1602660996.0,286047010.6,P
1602661015.8,286047005.0,N
1602661035.7,286047006.0,N
1602661055.5,286047004.8,N
1602661075.3,286047002.5,N
1602661095.2,286047002.3,N
1602661115.0,286047002.2,N
1602661115.9,286047002.2,N
1602661135.7,286047004.4,N
1602661155.6,286047002.1,N
1602661175.4,286047001.5,N
1602661195.3,286047002.6,N
1602661215.1,286047002.5,N
1602661216.0,286047002.5,N
1602661235.8,286047001.0,N
1602661255.7,286046998.3,N
1602661275.5,286046999.3,N
1602661295.3,286046999.0,N
1602661315.2,286046997.8,N
1602661335.0,286046996.2,N
1602661335.9,286046996.2,N
1602661355.8,286046996.2,N
1602661375.6,286046996.7,N
1602661395.4,286046997.0,N
1602661415.3,286046995.7,N
1602661435.1,286046995.7,N
1602661455.9,286046997.8,N
1602661475.7,286046996.9,N
1602661495.5,286046995.3,N
1602661515.4,286046996.6,N
1602661535.2,286046998.8,N
1602661555.0,286046999.1,N
1602661555.9,286046999.1,N
1602661575.8,286046999.6,N
1602661595.6,286046998.9,N
1602661615.5,286046998.7,N
1602661635.3,286046997.1,N
1602661655.1,286046999.1,N
1602661675.9,286046998.7,N
1602661695.7,286046998.6,N
1602661715.5,286046998.6,N
1602661735.4,286047000.1,N
1602661755.2,286047002.0,N
1602661775.1,286047002.5,N
1602661776.0,286047002.5,N
1602661795.8,286047001.9,N
1602661815.6,286047000.1,N
1602661835.5,286047001.7,N
1602661855.3,286047003.2,N
1602661875.2,286047001.3,N
1602661895.9,286047001.7,N
1602661915.7,286047002.4,N
1602661935.6,286047000.3,N
1602661955.4,286046998.1,N
1602661975.2,286047001.2,N
1602661995.1,286046998.6,N
1602661996.0,286046998.6,N
1602662015.8,286046999.2,N
1602662035.7,286046997.2,N
1602662055.5,286046997.1,N
1602662075.3,286046996.7,N
1602662095.2,286046996.6,N
1602662115.0,286046999.1,N
1602662115.9,286046999.1,N
1602662135.7,286046998.7,N
1602662155.6,286046998.9,N
1602662175.4,286046998.5,N
1602662195.3,286046998.8,N
1602662215.1,286046999.0,N
1602662216.0,286046999.0,N
1602662235.8,286046998.4,N
1602662255.7,286046998.9,N
1602662275.5,286047000.7,N
1602662295.3,286047000.9,N
1602662315.2,286047002.2,N
1602662335.0,286047004.4,N
1602662335.9,286047004.4,N
1602662355.8,286047003.2,N
1602662375.6,286047002.5,N
1602662395.4,286047000.8,N
